When you browse on this site, cookies collect data to enhance your experience and personalize the content and advertising you see.
Visit our Privacy Policy to learn more. By continuing to use the site, you agree to this use of cookies and data.
  • In Belgium
  • List of Countries
  • For 7 days
  • Water Temperature
  • Satellite Maps
  • Weather Map
  • Weather Widgets
  • user-avatar
    Login

    Hourly Weather Araure

    Today, 17 January, Thursday

    Time Temperature Precipitation Wind Pressure Humidity
    00:00 +26°C° 0 mm 1 mps 740 mmHg 71%
    01:00 +26°C° 0 mm 1 mps 740 mmHg 74%
    02:00 +25°C° 0 mm 1 mps 740 mmHg 76%
    03:00 +25°C° 0 mm 1 mps 740 mmHg 78%
    04:00 +25°C° 0 mm 1 mps 740 mmHg 81%
    05:00 +25°C° 0.1 mm 1 mps 740 mmHg 80%
    06:00 +25°C° 0.1 mm 1 mps 741 mmHg 79%
    07:00 +24°C° 0.1 mm 0 mps 741 mmHg 78%
    08:00 +27°C° 0.1 mm 1 mps 741 mmHg 72%
    09:00 +29°C° 0.1 mm 1 mps 742 mmHg 65%
    10:00 +31°C° 0.1 mm 2 mps 742 mmHg 59%
    11:00 +32°C° 0.1 mm 2 mps 741 mmHg 54%
    12:00 +34°C° 0.1 mm 2 mps 740 mmHg 50%
    13:00 +35°C° 0.1 mm 2 mps 739 mmHg 45%
    14:00 +34°C° 0 mm 1 mps 739 mmHg 45%
    15:00 +34°C° 0 mm 1 mps 738 mmHg 45%
    16:00 +34°C° 0 mm 1 mps 738 mmHg 45%
    17:00 +32°C° 0 mm 1 mps 738 mmHg 51%
    18:00 +30°C° 0 mm 1 mps 738 mmHg 57%
    19:00 +28°C° 0 mm 1 mps 738 mmHg 63%
    20:00 +27°C° 0 mm 1 mps 739 mmHg 66%
    21:00 +27°C° 0 mm 2 mps 739 mmHg 70%
    22:00 +26°C° 0 mm 2 mps 739 mmHg 73%
    23:00 +26°C° 0 mm 2 mps 739 mmHg 75%

    Tomorrow, 18 January, Friday

    Time Temperature Precipitation Wind Pressure Humidity
    00:00 +26°C° 0 mm 2 mps 739 mmHg 76%
    01:00 +26°C° 0 mm 1 mps 739 mmHg 77%
    02:00 +25°C° 0 mm 1 mps 739 mmHg 78%
    03:00 +25°C° 0 mm 1 mps 739 mmHg 80%
    04:00 +25°C° 0 mm 1 mps 739 mmHg 81%
    05:00 +25°C° 0 mm 1 mps 739 mmHg 80%
    06:00 +25°C° 0 mm 1 mps 740 mmHg 79%
    07:00 +26°C° 0 mm 1 mps 740 mmHg 78%
    08:00 +28°C° 0 mm 1 mps 740 mmHg 70%
    09:00 +30°C° 0 mm 1 mps 741 mmHg 61%
    10:00 +32°C° 0 mm 1 mps 741 mmHg 53%
    11:00 +33°C° 0 mm 1 mps 740 mmHg 48%
    12:00 +35°C° 0 mm 1 mps 739 mmHg 43%
    13:00 +36°C° 0 mm 1 mps 738 mmHg 37%
    14:00 +36°C° 0 mm 1 mps 738 mmHg 37%
    15:00 +35°C° 0 mm 1 mps 737 mmHg 37%
    16:00 +35°C° 0 mm 1 mps 736 mmHg 37%
    17:00 +33°C° 0 mm 1 mps 737 mmHg 44%
    18:00 +31°C° 0 mm 1 mps 737 mmHg 51%
    19:00 +28°C° 0 mm 1 mps 738 mmHg 58%
    20:00 +28°C° 0 mm 1 mps 738 mmHg 64%
    21:00 +27°C° 0 mm 2 mps 739 mmHg 71%
    22:00 +26°C° 0 mm 2 mps 739 mmHg 77%
    23:00 +26°C° 0 mm 2 mps 739 mmHg 78%

    Day after tomorrow, 19 January, Saturday

    Time Temperature Precipitation Wind Pressure Humidity
    00:00 +26°C° 0 mm 1 mps 739 mmHg 79%
    01:00 +25°C° 0 mm 1 mps 739 mmHg 80%
    02:00 +25°C° 0 mm 1 mps 739 mmHg 81%
    03:00 +25°C° 0 mm 1 mps 739 mmHg 82%
    04:00 +24°C° 0 mm 1 mps 738 mmHg 83%
    05:00 +25°C° 0 mm 1 mps 739 mmHg 81%
    06:00 +25°C° 0 mm 1 mps 740 mmHg 78%
    07:00 +26°C° 0 mm 1 mps 740 mmHg 76%
    08:00 +28°C° 0 mm 1 mps 740 mmHg 68%
    09:00 +30°C° 0 mm 1 mps 741 mmHg 60%
    10:00 +32°C° 0 mm 2 mps 741 mmHg 51%
    11:00 +34°C° 0 mm 2 mps 740 mmHg 46%
    12:00 +36°C° 0 mm 2 mps 739 mmHg 41%
    13:00 +37°C° 0 mm 2 mps 738 mmHg 36%
    14:00 +37°C° 0 mm 2 mps 737 mmHg 36%
    15:00 +35°C° 0 mm 1 mps 737 mmHg 36%
    16:00 +35°C° 0 mm 1 mps 736 mmHg 36%
    17:00 +33°C° 0 mm 1 mps 736 mmHg 42%
    18:00 +30°C° 0 mm 1 mps 737 mmHg 48%
    19:00 +28°C° 0 mm 1 mps 737 mmHg 54%
    20:00 +28°C° 0 mm 1 mps 738 mmHg 61%
    21:00 +27°C° 0 mm 2 mps 738 mmHg 68%
    22:00 +26°C° 0 mm 2 mps 739 mmHg 76%
    23:00 +26°C° 0 mm 2 mps 739 mmHg 76%

    20 January, Sunday

    Time Temperature Precipitation Wind Pressure Humidity
    00:00 +26°C° 0 mm 2 mps 739 mmHg 77%
    01:00 +25°C° 0 mm 2 mps 738 mmHg 77%
    02:00 +25°C° 0 mm 2 mps 738 mmHg 78%
    03:00 +25°C° 0 mm 1 mps 738 mmHg 78%
    04:00 +24°C° 0 mm 1 mps 738 mmHg 78%
    05:00 +25°C° 0 mm 1 mps 739 mmHg 76%
    06:00 +25°C° 0 mm 1 mps 739 mmHg 75%
    07:00 +26°C° 0 mm 1 mps 740 mmHg 73%
    08:00 +28°C° 0 mm 1 mps 740 mmHg 66%
    09:00 +30°C° 0 mm 1 mps 741 mmHg 59%
    10:00 +32°C° 0 mm 2 mps 741 mmHg 51%
    11:00 +34°C° 0 mm 2 mps 740 mmHg 48%
    12:00 +35°C° 0 mm 2 mps 739 mmHg 44%
    13:00 +36°C° 0 mm 2 mps 738 mmHg 41%
    14:00 +35°C° 0 mm 1 mps 738 mmHg 40%
    15:00 +35°C° 0 mm 1 mps 737 mmHg 40%
    16:00 +35°C° 0 mm 1 mps 736 mmHg 39%
    17:00 +33°C° 0 mm 1 mps 737 mmHg 45%
    18:00 +30°C° 0 mm 1 mps 737 mmHg 51%
    19:00 +28°C° 0 mm 1 mps 738 mmHg 57%
    20:00 +28°C° 0 mm 1 mps 738 mmHg 61%
    21:00 +27°C° 0 mm 1 mps 739 mmHg 64%
    22:00 +27°C° 0 mm 2 mps 739 mmHg 68%
    23:00 +26°C° 0 mm 2 mps 739 mmHg 71%

    21 January, Monday

    Time Temperature Precipitation Wind Pressure Humidity
    00:00 +26°C° 0 mm 2 mps 739 mmHg 74%
    01:00 +25°C° 0 mm 2 mps 739 mmHg 77%
    02:00 +25°C° 0 mm 2 mps 739 mmHg 78%
    03:00 +25°C° 0 mm 2 mps 739 mmHg 78%
    04:00 +25°C° 0 mm 2 mps 738 mmHg 79%
    05:00 +25°C° 0 mm 1 mps 739 mmHg 77%
    06:00 +26°C° 0 mm 1 mps 740 mmHg 76%
    07:00 +26°C° 0 mm 1 mps 740 mmHg 74%
    08:00 +28°C° 0 mm 1 mps 741 mmHg 65%
    09:00 +31°C° 0 mm 1 mps 741 mmHg 56%
    10:00 +34°C° 0 mm 2 mps 741 mmHg 47%
    11:00 +35°C° 0 mm 2 mps 740 mmHg 43%
    12:00 +35°C° 0 mm 1 mps 740 mmHg 40%
    13:00 +37°C° 0 mm 1 mps 739 mmHg 36%
    14:00 +36°C° 0 mm 1 mps 738 mmHg 36%
    15:00 +36°C° 0 mm 1 mps 738 mmHg 36%
    16:00 +36°C° 0 mm 2 mps 737 mmHg 36%
    17:00 +34°C° 0 mm 2 mps 737 mmHg 44%
    18:00 +31°C° 0 mm 2 mps 738 mmHg 52%
    19:00 +29°C° 0 mm 2 mps 738 mmHg 60%
    20:00 +28°C° 0 mm 2 mps 739 mmHg 64%
    21:00 +27°C° 0 mm 2 mps 739 mmHg 68%
    22:00 +27°C° 0 mm 2 mps 740 mmHg 72%
    23:00 +26°C° 0 mm 2 mps 739 mmHg 73%

    22 January, Tuesday

    Time Temperature Precipitation Wind Pressure Humidity
    00:00 +26°C° 0 mm 2 mps 739 mmHg 74%
    01:00 +26°C° 0 mm 2 mps 739 mmHg 75%
    02:00 +25°C° 0 mm 2 mps 739 mmHg 75%
    03:00 +25°C° 0 mm 2 mps 739 mmHg 76%
    04:00 +25°C° 0 mm 2 mps 739 mmHg 76%
    05:00 +25°C° 0 mm 1 mps 740 mmHg 75%
    06:00 +25°C° 0 mm 1 mps 740 mmHg 74%
    07:00 +26°C° 0 mm 1 mps 741 mmHg 73%
    08:00 +28°C° 0 mm 1 mps 741 mmHg 65%
    09:00 +30°C° 0 mm 1 mps 741 mmHg 56%
    10:00 +32°C° 0 mm 2 mps 742 mmHg 48%
    11:00 +34°C° 0 mm 2 mps 741 mmHg 43%
    12:00 +36°C° 0 mm 2 mps 740 mmHg 39%
    13:00 +37°C° 0 mm 2 mps 739 mmHg 35%
    14:00 +36°C° 0 mm 2 mps 738 mmHg 35%
    15:00 +36°C° 0 mm 2 mps 738 mmHg 35%
    16:00 +36°C° 0 mm 2 mps 737 mmHg 34%
    17:00 +34°C° 0 mm 2 mps 737 mmHg 41%
    18:00 +31°C° 0 mm 2 mps 738 mmHg 48%
    19:00 +29°C° 0 mm 2 mps 738 mmHg 55%
    20:00 +28°C° 0 mm 2 mps 739 mmHg 62%
    21:00 +27°C° 0 mm 2 mps 739 mmHg 68%
    22:00 +26°C° 0 mm 2 mps 740 mmHg 75%
    23:00 +26°C° 0 mm 2 mps 740 mmHg 76%
    Show more